KB0ALP Weather Reports


time (UTC)temp
C
wind
direction
speed
KPH
gust
KPH
rain 1hr
cm
rain 24hr
cm
rain mn
cm
humidity
%
barometer
mb
20260906065508 22 200 3.2 6.4 0.00 0.00 0.00 84 1017.7
20260906065005 22 210 1.6 4.8 0.00 0.00 0.00 84 1017.7
20260906064512 22 193 1.6 8.0 0.00 0.00 0.00 84 1017.5
20260906064004 22 214 1.6 8.0 0.00 0.00 0.00 84 1017.5
20260906063510 22 181 3.2 12.9 0.00 0.00 0.00 84 1017.5
20260906063018 22 248 1.6 12.9 0.00 0.00 0.00 84 1017.5
20260906062509 22 241 1.6 6.4 0.00 0.00 0.00 83 1017.4
20260906062009 22 227 0.0 6.4 0.00 0.00 0.00 83 1017.5
20260906061524 22 276 1.6 6.4 0.00 0.00 0.00 83 1017.4
20260906061007 22 158 1.6 4.8 0.00 0.00 0.00 83 1017.4
20260906060507 22 185 0.0 6.4 0.00 0.00 0.00 83 1017.4
20260906060021 22 199 1.6 6.4 0.00 0.00 0.00 83 1017.4
20260906055513 22 190 0.0 14.5 0.00 0.00 0.00 83 1017.4
20260906055009 23 189 1.6 14.5 0.00 0.00 0.00 82 1017.4
20260906054533 23 136 1.6 8.0 0.00 0.00 0.00 82 1017.4
20260906054009 23 221 3.2 6.4 0.00 0.00 0.00 82 1017.4
20260906053511 23 220 3.2 6.4 0.00 0.00 0.00 82 1017.4
20260906053014 23 200 0.0 6.4 0.00 0.00 0.00 81 1017.4
20260906052506 23 201 0.0 8.0 0.00 0.00 0.00 81 1017.4
20260906052012 23 226 1.6 8.0 0.00 0.00 0.00 81 1017.3
20260906051518 23 205 0.0 4.8 0.00 0.00 0.00 81 1017.3
20260906051011 23 206 1.6 6.4 0.00 0.00 0.00 81 1017.1
20260906050514 23 169 1.6 6.4 0.00 0.00 0.00 80 1017.2
20260906050027 23 207 1.6 6.4 0.00 0.00 0.00 80 1017.2
20260906045509 23 191 1.6 6.4 0.00 0.00 0.00 80 1017.4
20260906045008 23 203 1.6 6.4 0.00 0.00 0.00 81 1017.3
20260906044523 23 191 0.0 8.0 0.00 0.00 0.00 81 1017.3
20260906044011 23 160 4.8 8.0 0.00 0.00 0.00 81 1017.1
20260906043509 23 203 3.2 6.4 0.00 0.00 0.00 81 1017.0
20260906043026 23 289 1.6 8.0 0.00 0.00 0.00 81 1016.9
20260906042509 23 245 4.8 8.0 0.00 0.00 0.00 81 1016.8
20260906042014 23 263 0.0 6.4 0.00 0.00 0.00 82 1016.7
20260906041516 23 243 3.2 6.4 0.00 0.00 0.00 81 1016.6
20260906041009 23 250 0.0 4.8 0.00 0.00 0.00 81 1016.5
20260906040509 23 181 0.0 4.8 0.00 0.00 0.00 81 1016.4
20260906040023 23 216 0.0 4.8 0.00 0.00 0.00 81 1016.3
20260906035508 23 225 0.0 4.8 0.00 0.00 0.00 81 1016.3
20260906035011 23 184 0.0 1.6 0.00 0.00 0.00 81 1016.3
20260906034528 23 178 0.0 3.2 0.00 0.00 0.00 81 1016.1
20260906034011 23 207 0.0 3.2 0.00 0.00 0.00 81 1016.1
20260906033512 23 216 0.0 1.6 0.00 0.00 0.00 81 1016.1
20260906033028 24 253 0.0 3.2 0.00 0.00 0.00 81 1016.2
20260906032513 24 186 0.0 3.2 0.00 0.00 0.00 81 1016.2
20260906032015 24 179 0.0 0.0 0.00 0.00 0.00 81 1016.1
20260906031524 24 179 0.0 3.2 0.00 0.00 0.00 81 1016.1
20260906031015 24 179 0.0 4.8 0.00 0.00 0.00 80 1016.0
20260906030512 24 196 0.0 4.8 0.00 0.00 0.00 80 1015.9
20260906030019 24 142 0.0 3.2 0.00 0.00 0.00 80 1015.8
20260906025508 24 195 0.0 3.2 0.00 0.00 0.00 80 1015.8
20260906025010 24 245 0.0 4.8 0.00 0.00 0.00 80 1015.8
20260906024520 24 236 1.6 4.8 0.00 0.00 0.00 81 1015.7
20260906024012 24 240 0.0 4.8 0.00 0.00 0.00 80 1015.7
20260906023514 24 192 0.0 4.8 0.00 0.00 0.00 81 1015.7
20260906023027 24 213 0.0 3.2 0.00 0.00 0.00 81 1015.7
20260906022512 24 245 0.0 3.2 0.00 0.00 0.00 80 1015.6
20260906022012 24 207 0.0 1.6 0.00 0.00 0.00 80 1015.6
20260906021537 24 207 0.0 3.2 0.00 0.00 0.00 80 1015.6
20260906021014 24 232 0.0 4.8 0.00 0.00 0.00 80 1015.5
20260906020517 24 210 1.6 4.8 0.00 0.00 0.00 80 1015.4
20260906020030 24 186 0.0 3.2 0.00 0.00 0.00 80 1015.3
20260906015511 24 186 0.0 3.2 0.00 0.00 0.00 80 1015.2
20260906015014 24 233 0.0 3.2 0.00 0.00 0.00 80 1015.3
20260906014529 24 212 0.0 3.2 0.00 0.00 0.00 80 1015.4
20260906014009 24 233 0.0 4.8 0.00 0.00 0.00 80 1015.2
20260906013512 24 218 0.0 4.8 0.00 0.00 0.00 79 1015.0
20260906013038 24 203 0.0 6.4 0.00 0.00 0.00 79 1014.9
20260906012503 25 208 1.6 6.4 0.00 0.00 0.00 79 1015.0
20260906012003 25 213 0.0 4.8 0.00 0.00 0.00 79 1015.0
20260906011505 25 200 0.0 4.8 0.00 0.00 0.00 79 1015.0
20260906011003 25 257 0.0 4.8 0.00 0.00 0.00 78 1015.1
20260906010505 25 214 1.6 6.4 0.00 0.00 0.00 78 1015.2
20260906010008 25 236 1.6 6.4 0.00 0.00 0.00 78 1015.2
20260906005504 25 248 3.2 6.4 0.00 0.00 0.00 78 1015.2
20260906005005 25 243 1.6 6.4 0.00 0.00 0.00 77 1015.2
20260906004516 25 183 1.6 8.0 0.00 0.00 0.00 78 1015.2
20260906004002 25 174 0.0 8.0 0.00 0.00 0.00 77 1015.2
20260906003502 26 191 1.6 9.7 0.00 0.00 0.00 77 1015.2
20260906003008 26 262 3.2 9.7 0.00 0.00 0.00 77 1015.1
20260906002502 26 221 3.2 6.4 0.00 0.00 0.00 76 1015.1
20260906002003 26 188 1.6 9.7 0.00 0.00 0.00 76 1015.1
20260906001506 26 227 3.2 9.7 0.00 0.00 0.00 75 1015.1
20260906001003 26 204 1.6 6.4 0.00 0.00 0.00 75 1015.0
20260906000504 27 245 3.2 6.4 0.00 0.00 0.00 75 1015.0
20260906000006 27 170 3.2 11.3 0.00 0.00 0.00 76 1014.9
20260905235503 27 181 3.2 11.3 0.00 0.00 0.00 75 1014.7
20260905235004 27 218 3.2 9.7 0.00 0.00 0.00 75 1014.7
20260905234512 27 169 3.2 9.7 0.00 0.00 0.00 74 1014.6
20260905234007 27 196 3.2 9.7 0.00 0.00 0.00 75 1014.7
20260905233507 27 172 3.2 9.7 0.00 0.00 0.00 74 1014.7
20260905233019 28 229 4.8 9.7 0.00 0.00 0.00 74 1014.6
20260905232510 28 181 4.8 11.3 0.00 0.00 0.00 73 1014.7
20260905232003 28 210 1.6 11.3 0.00 0.00 0.00 74 1014.7
20260905231504 28 178 3.2 9.7 0.00 0.00 0.00 74 1014.7
20260905231003 28 174 4.8 9.7 0.00 0.00 0.00 74 1014.7
20260905230504 29 268 4.8 8.0 0.00 0.00 0.00 73 1014.6
20260905230007 29 100 0.0 8.0 0.00 0.00 0.00 74 1014.6
20260905225504 29 214 3.2 8.0 0.00 0.00 0.00 73 1014.7
20260905225003 29 145 1.6 6.4 0.00 0.00 0.00 73 1014.7
20260905224514 30 152 3.2 8.0 0.00 0.00 0.00 72 1014.7
20260905224003 30 255 3.2 8.0 0.00 0.00 0.00 72 1014.6
20260905223507 30 212 0.0 8.0 0.00 0.00 0.00 71 1014.6
20260905223014 30 200 3.2 8.0 0.00 0.00 0.00 71 1014.6
20260905222509 30 181 1.6 6.4 0.00 0.00 0.00 71 1014.5
20260905222007 30 148 3.2 9.7 0.00 0.00 0.00 70 1014.4
20260905221519 30 271 4.8 9.7 0.00 0.00 0.00 70 1014.3
20260905221009 30 224 3.2 8.0 0.00 0.00 0.00 70 1014.3
20260905220502 30 252 4.8 8.0 0.00 0.00 0.00 70 1014.4
20260905220003 30 215 1.6 6.4 0.00 0.00 0.00 71 1014.4
20260905215504 30 229 1.6 9.7 0.00 0.00 0.00 71 1014.5
20260905215003 30 212 3.2 9.7 0.00 0.00 0.00 70 1014.4
20260905214506 30 159 1.6 6.4 0.00 0.00 0.00 70 1014.4
20260905214004 31 78 1.6 9.7 0.00 0.00 0.00 70 1014.2
20260905213503 31 183 3.2 9.7 0.00 0.00 0.00 70 1014.2
20260905213009 31 196 1.6 8.0 0.00 0.00 0.00 70 1014.1
20260905212506 31 209 1.6 8.0 0.00 0.00 0.00 70 1014.1
20260905212004 31 231 3.2 11.3 0.00 0.00 0.00 68 1014.0
20260905211515 31 243 4.8 11.3 0.00 0.00 0.00 68 1014.0
20260905211007 31 167 3.2 9.7 0.00 0.00 0.00 69 1014.0
20260905210509 32 190 3.2 9.7 0.00 0.00 0.00 67 1014.1
20260905210021 32 155 3.2 6.4 0.00 0.00 0.00 67 1014.1
20260905205511 32 208 1.6 8.0 0.00 0.00 0.00 67 1014.0
20260905205012 32 252 1.6 9.7 0.00 0.00 0.00 67 1014.1
20260905204502 32 273 4.8 9.7 0.00 0.00 0.00 65 1014.1
20260905204002 33 250 3.2 9.7 0.00 0.00 0.00 64 1014.2
20260905203504 33 194 3.2 8.0 0.00 0.00 0.00 64 1014.2
20260905203008 33 155 1.6 8.0 0.00 0.00 0.00 64 1014.2
20260905202503 33 225 3.2 6.4 0.00 0.00 0.00 63 1014.4
20260905202005 33 44 0.0 4.8 0.00 0.00 0.00 63 1014.4
20260905201517 33 318 0.0 4.8 0.00 0.00 0.00 64 1014.4
20260905201007 33 134 1.6 4.8 0.00 0.00 0.00 63 1014.3
20260905200504 33 136 3.2 4.8 0.00 0.00 0.00 62 1014.2
20260905200023 33 176 1.6 4.8 0.00 0.00 0.00 61 1014.2
20260905195507 33 176 3.2 4.8 0.00 0.00 0.00 63 1014.3
20260905195008 33 229 1.6 4.8 0.00 0.00 0.00 63 1014.3
20260905194520 33 217 1.6 4.8 0.00 0.00 0.00 63 1014.3
20260905194012 32 156 1.6 4.8 0.00 0.00 0.00 64 1014.4
20260905193517 33 167 0.0 4.8 0.00 0.00 0.00 63 1014.4
20260905193005 33 158 1.6 4.8 0.00 0.00 0.00 61 1014.4
20260905192503 33 86 0.0 6.4 0.00 0.00 0.00 64 1014.4
20260905192003 33 162 1.6 6.4 0.00 0.00 0.00 62 1014.5
20260905191508 33 203 1.6 6.4 0.00 0.00 0.00 65 1014.4
20260905191003 32 276 3.2 6.4 0.00 0.00 0.00 64 1014.5
20260905190504 32 248 0.0 3.2 0.00 0.00 0.00 66 1014.6
20260905190016 32 205 0.0 4.8 0.00 0.00 0.00 64 1014.6
20260905185505 33 100 1.6 6.4 0.00 0.00 0.00 63 1014.6
20260905185009 33 165 0.0 6.4 0.00 0.00 0.00 63 1014.6
20260905184522 33 178 0.0 4.8 0.00 0.00 0.00 65 1014.6
20260905184011 32 265 1.6 4.8 0.00 0.00 0.00 63 1014.6
20260905183510 33 207 1.6 4.8 0.00 0.00 0.00 62 1014.6
20260905183024 33 213 1.6 4.8 0.00 0.00 0.00 63 1014.5
20260905182511 33 240 1.6 4.8 0.00 0.00 0.00 64 1014.6
20260905182013 32 269 3.2 4.8 0.00 0.00 0.00 64 1014.6
20260905181529 32 227 0.0 4.8 0.00 0.00 0.00 64 1014.8
20260905181004 32 172 0.0 4.8 0.00 0.00 0.00 64 1014.7
20260905180503 32 185 1.6 4.8 0.00 0.00 0.00 63 1014.7
20260905180009 33 169 1.6 4.8 0.00 0.00 0.00 63 1014.7
20260905175503 33 174 1.6 4.8 0.00 0.00 0.00 63 1014.9
20260905175008 33 146 1.6 4.8 0.00 0.00 0.00 62 1014.9
20260905174517 33 278 1.6 4.8 0.00 0.00 0.00 62 1014.8
20260905174009 32 157 0.0 4.8 0.00 0.00 0.00 62 1014.9
20260905173509 32 162 1.6 4.8 0.00 0.00 0.00 62 1015.0
20260905173018 33 210 3.2 4.8 0.00 0.00 0.00 62 1014.9
20260905172511 33 146 3.2 6.4 0.00 0.00 0.00 62 1014.9
20260905172012 33 262 3.2 6.4 0.00 0.00 0.00 61 1014.9
20260905171530 33 245 1.6 6.4 0.00 0.00 0.00 61 1015.0
20260905171011 33 264 1.6 3.2 0.00 0.00 0.00 61 1015.1
20260905170512 33 178 0.0 4.8 0.00 0.00 0.00 62 1015.0
20260905170029 33 156 0.0 4.8 0.00 0.00 0.00 63 1015.1
20260905165514 32 259 1.6 8.0 0.00 0.00 0.00 62 1015.2
20260905165003 32 141 3.2 8.0 0.00 0.00 0.00 63 1015.2
20260905164509 32 231 1.6 8.0 0.00 0.00 0.00 64 1015.2
20260905164003 32 226 3.2 8.0 0.00 0.00 0.00 64 1015.3
20260905163503 32 249 1.6 6.4 0.00 0.00 0.00 65 1015.2
20260905163014 32 297 1.6 6.4 0.00 0.00 0.00 64 1015.2
20260905162512 32 288 0.0 3.2 0.00 0.00 0.00 67 1015.2
20260905162007 31 260 1.6 8.0 0.00 0.00 0.00 66 1015.2
20260905161521 31 265 1.6 8.0 0.00 0.00 0.00 66 1015.2
20260905161008 32 276 1.6 6.4 0.00 0.00 0.00 64 1015.3
20260905160512 32 254 3.2 8.0 0.00 0.00 0.00 66 1015.2
20260905160032 31 205 3.2 8.0 0.00 0.00 0.00 65 1015.3
20260905155514 31 272 3.2 8.0 0.00 0.00 0.00 66 1015.3
20260905155015 32 143 3.2 6.4 0.00 0.00 0.00 65 1015.3
20260905154532 32 243 3.2 4.8 0.00 0.00 0.00 66 1015.4
20260905154016 32 273 1.6 4.8 0.00 0.00 0.00 66 1015.4
20260905153504 31 245 1.6 6.4 0.00 0.00 0.00 67 1015.3
20260905153015 31 299 1.6 6.4 0.00 0.00 0.00 67 1015.3
20260905152504 31 230 3.2 6.4 0.00 0.00 0.00 68 1015.3
20260905152007 31 282 1.6 4.8 0.00 0.00 0.00 67 1015.3
20260905151515 31 276 1.6 4.8 0.00 0.00 0.00 65 1015.2
20260905151009 31 290 1.6 6.4 0.00 0.00 0.00 67 1015.2
20260905150508 31 274 3.2 6.4 0.00 0.00 0.00 66 1015.0
20260905150024 31 296 0.0 3.2 0.00 0.00 0.00 66 1015.0
20260905145512 31 257 0.0 3.2 0.00 0.00 0.00 68 1014.9
20260905145014 31 255 1.6 4.8 0.00 0.00 0.00 67 1014.9
20260905144530 31 180 1.6 4.8 0.00 0.00 0.00 69 1014.8
20260905144016 31 176 1.6 4.8 0.00 0.00 0.00 69 1014.6
20260905143517 31 240 0.0 4.8 0.00 0.00 0.00 70 1014.6
20260905143032 31 290 0.0 1.6 0.00 0.00 0.00 71 1014.5
20260905142515 30 262 0.0 1.6 0.00 0.00 0.00 72 1014.5
20260905142016 30 278 0.0 1.6 0.00 0.00 0.00 73 1014.4
20260905141510 30 191 0.0 3.2 0.00 0.00 0.00 74 1014.3
20260905141006 30 153 0.0 4.8 0.00 0.00 0.00 74 1014.4
20260905140506 29 207 0.0 4.8 0.00 0.00 0.00 76 1014.4
20260905140018 29 290 0.0 4.8 0.00 0.00 0.00 75 1014.3
20260905135508 29 288 0.0 3.2 0.00 0.00 0.00 76 1014.3
20260905135010 28 322 0.0 3.2 0.00 0.00 0.00 77 1014.3
20260905134526 28 295 0.0 4.8 0.00 0.00 0.00 77 1014.3
20260905134013 29 306 0.0 4.8 0.00 0.00 0.00 77 1014.2
20260905133512 28 330 0.0 0.0 0.00 0.00 0.00 77 1014.3
20260905133028 28 335 0.0 0.0 0.00 0.00 0.00 78 1014.1
20260905132516 28 338 0.0 0.0 0.00 0.00 0.00 78 1014.1
20260905132019 28 337 0.0 0.0 0.00 0.00 0.00 77 1014.1
20260905131531 28 338 0.0 0.0 0.00 0.00 0.00 77 1014.2
20260905131020 28 338 0.0 0.0 0.00 0.00 0.00 77 1014.3
20260905130515 28 328 0.0 1.6 0.00 0.00 0.00 78 1014.3
20260905130015 28 328 0.0 1.6 0.00 0.00 0.00 79 1014.4
20260905125513 28 4 0.0 0.0 0.00 0.00 0.00 79 1014.4
20260905125014 27 4 0.0 0.0 0.00 0.00 0.00 80 1014.2
20260905124524 27 4 0.0 0.0 0.00 0.00 0.00 81 1014.3
20260905124009 27 4 0.0 0.0 0.00 0.00 0.00 82 1014.2
20260905123509 26 43 0.0 0.0 0.00 0.00 0.00 83 1014.2
20260905123027 26 43 0.0 0.0 0.00 0.00 0.00 85 1014.1
20260905122512 26 43 0.0 0.0 0.00 0.00 0.00 87 1014.0
20260905122017 25 43 0.0 0.0 0.00 0.00 0.00 89 1014.1
20260905121532 25 43 0.0 0.0 0.00 0.00 0.00 90 1014.1
20260905121017 24 43 0.0 0.0 0.00 0.00 0.00 90 1013.9
20260905120517 24 43 0.0 0.0 0.00 0.00 0.00 90 1013.7
20260905120032 24 43 0.0 0.0 0.00 0.00 0.00 90 1013.6
20260905115517 24 43 0.0 0.0 0.00 0.00 0.00 90 1013.5
20260905115018 24 43 0.0 0.0 0.00 0.00 0.00 90 1013.3
20260905114532 24 43 0.0 0.0 0.00 0.00 0.00 90 1013.2
20260905114009 24 43 0.0 0.0 0.00 0.00 0.00 90 1013.1
20260905113511 24 43 0.0 0.0 0.00 0.00 0.00 89 1013.1
20260905113023 24 43 0.0 0.0 0.00 0.00 0.00 89 1013.1
20260905112512 24 43 0.0 0.0 0.00 0.00 0.00 89 1013.0
20260905112014 24 43 0.0 0.0 0.00 0.00 0.00 89 1013.0
20260905111528 24 43 0.0 0.0 0.00 0.00 0.00 89 1012.9
20260905111015 24 43 0.0 0.0 0.00 0.00 0.00 89 1012.9
20260905110515 24 43 0.0 0.0 0.00 0.00 0.00 89 1012.8
20260905110028 25 43 0.0 0.0 0.00 0.00 0.00 89 1012.8
20260905105516 25 43 0.0 0.0 0.00 0.00 0.00 89 1012.8
20260905105019 25 43 0.0 0.0 0.00 0.00 0.00 88 1012.8
20260905104538 25 43 0.0 0.0 0.00 0.00 0.00 89 1012.9
20260905104015 25 43 0.0 0.0 0.00 0.00 0.00 88 1012.9
20260905103515 25 43 0.0 0.0 0.00 0.00 0.00 88 1013.0
20260905103038 25 43 0.0 0.0 0.00 0.00 0.00 88 1013.0
20260905102508 25 43 0.0 0.0 0.00 0.00 0.00 88 1012.9
20260905102012 25 43 0.0 0.0 0.00 0.00 0.00 88 1012.9
20260905101522 25 43 0.0 0.0 0.00 0.00 0.00 88 1012.9
20260905101002 25 43 0.0 0.0 0.00 0.00 0.00 88 1013.0
20260905100503 25 43 0.0 0.0 0.00 0.00 0.00 88 1013.0
20260905100006 25 43 0.0 0.0 0.00 0.00 0.00 88 1013.0
20260905095503 25 43 0.0 0.0 0.00 0.00 0.00 88 1013.0
20260905095004 25 43 0.0 0.0 0.00 0.00 0.00 88 1013.0
20260905094511 25 43 0.0 0.0 0.00 0.00 0.00 88 1013.0
20260905094005 25 43 0.0 0.0 0.00 0.00 0.00 88 1013.1
20260905093506 25 43 0.0 0.0 0.00 0.00 0.00 87 1013.1
20260905093017 25 43 0.0 0.0 0.00 0.00 0.00 87 1013.2
20260905092506 25 43 0.0 0.0 0.00 0.00 0.00 87 1013.2
20260905092008 25 43 0.0 0.0 0.00 0.00 0.00 87 1013.2
20260905091524 25 43 0.0 0.0 0.00 0.00 0.00 87 1013.1
20260905091009 25 43 0.0 0.0 0.00 0.00 0.00 88 1013.1
20260905090511 25 43 0.0 0.0 0.00 0.00 0.00 88 1013.1
20260905090027 25 43 0.0 0.0 0.00 0.00 0.00 88 1013.2
20260905085514 25 43 0.0 0.0 0.00 0.00 0.00 88 1013.2
20260905085003 25 43 0.0 0.0 0.00 0.00 0.00 87 1013.3
20260905084507 25 43 0.0 0.0 0.00 0.00 0.00 87 1013.3
20260905084004 25 43 0.0 0.0 0.00 0.00 0.00 87 1013.3
20260905083503 25 43 0.0 0.0 0.00 0.00 0.00 87 1013.3
20260905083012 25 43 0.0 0.0 0.00 0.00 0.00 86 1013.4
20260905082503 25 43 0.0 0.0 0.00 0.00 0.00 86 1013.4
20260905082006 26 43 0.0 0.0 0.00 0.00 0.00 86 1013.4
20260905081518 26 43 0.0 0.0 0.00 0.00 0.00 85 1013.5
20260905081009 26 43 0.0 0.0 0.00 0.00 0.00 85 1013.5
20260905080509 26 43 0.0 0.0 0.00 0.00 0.00 85 1013.4
20260905080026 26 43 0.0 0.0 0.00 0.00 0.00 85 1013.3
20260905075512 26 43 0.0 0.0 0.00 0.00 0.00 84 1013.3
20260905075011 26 43 0.0 0.0 0.00 0.00 0.00 84 1013.3
20260905074530 26 43 0.0 0.0 0.00 0.00 0.00 84 1013.2
20260905074013 26 43 0.0 0.0 0.00 0.00 0.00 84 1013.2
20260905073503 26 43 0.0 0.0 0.00 0.00 0.00 84 1013.3
20260905073008 26 43 0.0 1.6 0.00 0.00 0.00 84 1013.3
20260905072503 26 43 0.0 3.2 0.00 0.00 0.00 84 1013.3
20260905072004 26 42 0.0 3.2 0.00 0.00 0.00 84 1013.4
20260905071522 26 26 0.0 1.6 0.00 0.00 0.00 85 1013.4
20260905071011 26 24 0.0 0.0 0.00 0.00 0.00 85 1013.4
20260905070509 26 23 0.0 0.0 0.00 0.00 0.00 85 1013.4
20260905070023 26 24 0.0 0.0 0.00 0.00 0.00 85 1013.4